DECAYED

STARLINK-1880, 47165 (Decayed)

Orbit data source: Space-Track

STARLINK-1880, 47165 was a payload satellite owned by SpaceX/Seattle (US) in LEO that was launched on Wed, 25 Nov 2020 UTC via an FALCON 9 launch vehicle from the Air Force Eastern Test Range (AFETR). Payload-class satellites include a variety of spacecraft equipped with specific instruments for various scientific and technological missions. These include communications satellites like Starlink; space stations such as the ISS; scientific satellites like the Hubble; Earth observation satellites from companies like Planet Labs, Umbra, and HawkEye 360; GPS; miniature CubeSats for education and research; and military/defense satellites.

Not visible in the next 10 days
Identifier
47165, 2020-088AV
Orbit
Decayed
Country
Flag of USUS
Related business
Manufacturer
SpaceX/Seattle
Mission
Decayed Commercial Communications
Bus & Motor
STARLINK, Unknown motor
Mass
260 kg wet, ~248 kg dry
Launch date (UTC)
2020-11-25 (6 years ago)
Launch vehicle
FALCON 9
Launch site
Air Force Eastern Test Range (AFETR)
Object type
Payload
Rocket body
Debris
Shape & HBR
Box + 1 Pan, 10.1 m
Radar Cross Section
13.562 m², Large (>1 m²)

Expand to show TLE details & history
Last TLE update: 1 year ago

TLE from 1 year ago
0 STARLINK-1880
1 47165U 20088AV  25036.66279406  .15383080  12511-4  61861-3 0  9994
2 47165  53.0243 247.3985 0007640 295.8466 175.4931 16.43313928232756
Epoch: 2025-02-05T15:54Z
TLE epoch observation values (Epoch: 2025-02-05T15:54:25.406Z)
Latitude
48.23375°
Longitude
-4.20922°
Altitude
167.338 km
Speed
7.809 km/s
True Right ascension
00h 41m 47s
True Declination
48° 02' 51"
Sunlit
Object was in daylight at epoch
Visualization orbit readout
Latitude
Unknown
Longitude
Unknown
Altitude
Unknown
Speed
Unknown
Apparent Right ascension
Unknown
Apparent Declination
Unknown
Sunlit
N/A
Visualization observer readout
Local Sidereal Time
21:31:03
Azimuth
Unknown
Elevation
Unknown
Doppler factor
Unknown
Orbital elements
Apogee altitude
162.286 km
Perigee altitude
152.3 km
Semi-major axis
6,535.43 km
Eccentricity
0.00076
Inclination
53.0243°
RAAN
247.3985°
Arg. of periapsis
295.8466°
True anomaly
175.49997°
Mean anomaly
175.4931°
Eccentric anomaly
175.49654°
Mean motion
4.10801 °/min
Orbital period
87.63 mins
BSTAR
0.00061861
Loading maneuver chart data...
Computing Atmospheric mass density...

Documentation

Showing up to 5 results
|